[ hide orbit diagram ]
For accurate long-term ephemerides, please instead use our Horizons system.This orbit viewer was implemented using two-body methods, and hence should not be used for determining accurate long-term trajectories (over several years or decades) or planetary encounter circumstances.
Orbital Elements at Epoch 2459000.5 (2020-May-31.0) TDB
Reference: JPL 14 (heliocentric ecliptic J2000)
Element | Value | Uncertainty (1-sigma) | Units |
e | .1102733429997308 | 5.7272e-08 | |
a | 3.151288392103589 | 3.2901e-08 | au |
q | 2.80378528635008 | 1.8153e-07 | au |
i | 6.599632503221077 | 6.4878e-06 | deg |
node | 58.68710621401589 | 4.6824e-05 | deg |
peri | 177.901880936932 | 5.4158e-05 | deg |
M | 358.4556643462416 | 2.4967e-05 | deg |
tp | 2459009.265361838896 (2020-Jun-08.76536184) | 0.00014169 | TDB |
period | 2043.293020091228 5.59 | 3.2e-05 8.761e-08 | d yr |
n | .1761861839981849 | 2.7592e-09 | deg/d |
Q | 3.498791497857098 | 3.6529e-08 | au |
|
| | Orbit Determination Parameters
Additional Information
|
[ hide covariance matrix ]
Orbital Elements at Epoch 2457477.5 (2016-Mar-30.0) TDB
Reference: JPL 14 (heliocentric ecliptic J2000)
Element | Value | Uncertainty (1-sigma) | Units |
e | .109560584754997 | 5.7297e-08 | |
q | 2.80785242558749 | 1.8153e-07 | au |
tp | 2456961.526523922674 (2014-Oct-31.02652392) | 0.00015008 | TDB |
node | 58.69909934684959 | 4.6822e-05 | deg |
peri | 177.3541585867405 | 5.4241e-05 | deg |
i | 6.598824665097814 | 6.4864e-06 | deg |
|
| | Orbit Determination Parameters
Additional Information
|
Orbit Covariance (6×6)
|
|
e |
q |
tp |
node |
peri |
i |
e |
3.282930000251611E-15 |
-1.026302723489036E-14 |
-4.266370990434269E-13 |
-5.405790752906079E-15 |
-2.368202454394503E-14 |
-1.329167784099337E-15 |
q |
-1.026302723489036E-14 |
3.295208684589979E-14 |
-1.001579247326553E-13 |
1.435887419178385E-14 |
-1.422985455834395E-13 |
4.788613617362759E-15 |
tp |
-4.266370990434269E-13 |
-1.001579247326553E-13 |
2.252495142020415E-8 |
7.314380025917031E-12 |
4.132373270151793E-9 |
2.089175018650765E-12 |
node |
-5.405790752906079E-15 |
1.435887419178385E-14 |
7.314380025917031E-12 |
2.192270503420335E-9 |
-2.176474420765217E-9 |
-2.598294299447818E-11 |
peri |
-2.368202454394503E-14 |
-1.422985455834395E-13 |
4.132373270151793E-9 |
-2.176474420765217E-9 |
2.94211252526724E-9 |
2.62778754955363E-11 |
i |
-1.329167784099337E-15 |
4.788613617362759E-15 |
2.089175018650765E-12 |
-2.598294299447818E-11 |
2.62778754955363E-11 |
4.20737737015299E-11 |
|
Physical Parameter Table
Parameter |
Symbol |
Value |
Units |
Sigma |
Reference |
Notes |
absolute magnitude |
H |
15.7 |
|
n/a |
MPO469977 |
|
|
183562 (2003 LP4) Discovered 2003-Jun-05 by Spacewatch at Kitt Peak |
Reference: 20080420/Numbers.arc | Last Updated: 2008-04-23 |
|
[ hide close-approach data ]
Close-Approach Data ...sorted by Date/Time (TDB)
|
Date/Time (TDB) |
Time Uncertainty (days_HH:MM) |
Body |
Nominal Distance (au) |
Minimum Distance (au) |
Maximum Distance (au) |
V-relative (km/s) |
V-infinity (km/s) |
JD (TDB) |
Time Uncertainty (minutes) |
Semi-major axis (km) |
Semi-minor axis (km) |
range-LOV angle (deg) |
N-sigma |
BP |
Orbit Ref. |
Reference |
Modified |
1906-Jan-05 02:35 |
00:05 |
Jupiter |
1.60079817476157 |
1.60079573789784 |
1.60080061164796 |
2.24696534194246 |
1.9976493738938 |
2417215.607554539 |
5.24656079579237 |
356.59477579144 |
18.2395166770558 |
-77.4187907536738 |
1355564.08894127 |
T |
14 |
CATAB v2.0f-lin.ifort 2020-Nov-12 08:33:55 |
2020-Nov-12 08:33 |
1916-Jun-19 23:20 |
00:05 |
Jupiter |
1.52870059929136 |
1.52869933655574 |
1.52870186207451 |
1.995438528888 |
1.69517397566221 |
2421034.472408586 |
4.73990388443937 |
524.776129386797 |
45.9424186880543 |
-84.2218504737656 |
1404263.34251669 |
T |
14 |
CATAB v2.0f-lin.ifort 2020-Nov-12 08:33:55 |
2020-Nov-12 08:33 |
1926-Nov-11 01:07 |
00:04 |
Jupiter |
1.89887700222149 |
1.89887462362228 |
1.89887938082382 |
3.01148838804595 |
2.85953359280986 |
2424830.546739963 |
4.2366338769601 |
187.922585007631 |
37.3555604429511 |
-66.729956523429 |
1592311.20313617 |
T |
14 |
CATAB v2.0f-lin.ifort 2020-Nov-12 08:33:55 |
2020-Nov-12 08:33 |
2000-Dec-25 16:30 |
< 00:01 |
Jupiter |
1.59523356746529 |
1.59523279789397 |
1.59523433703814 |
2.20034648826226 |
1.94411496001561 |
2451904.187498733 |
0.914468850776957 |
133.498988760898 |
20.9425184589065 |
-76.5178770308808 |
1510063.66380379 |
T |
14 |
CATAB v2.0f-lin.ifort 2020-Nov-12 08:33:55 |
2020-Nov-12 08:33 |
2011-Jun-13 07:55 |
< 00:01 |
Jupiter |
1.52620087109973 |
1.52620027759714 |
1.52620146460457 |
2.04398151860246 |
1.75153798258089 |
2455725.829806440 |
0.447189453770836 |
219.856325944729 |
40.7863216127897 |
-83.4931990131922 |
1454983.39013834 |
T |
14 |
CATAB v2.0f-lin.ifort 2020-Nov-12 08:33:55 |
2020-Nov-12 08:33 |
2021-Nov-08 00:05 |
< 00:01 |
Jupiter |
1.8939221312611 |
1.8939213699307 |
1.89392289259128 |
3.03499470318525 |
2.88387394296335 |
2459526.503218467 |
0.47457718658174 |
63.611385608862 |
27.1312156030636 |
88.0342395018741 |
2074081.92258762 |
T |
14 |
CATAB v2.0f-lin.ifort 2020-Nov-12 08:33:55 |
2020-Nov-12 08:33 |
2095-Dec-21 01:02 |
00:04 |
Jupiter |
1.60434729383379 |
1.60434567954101 |
1.60434890813733 |
2.17476423633001 |
1.91668732609656 |
2486597.543102236 |
3.59845849982081 |
253.755935062288 |
21.9870323790447 |
-77.1534286575182 |
1442290.21424288 |
T |
14 |
CATAB v2.0f-lin.ifort 2020-Nov-12 08:33:55 |
2020-Nov-12 08:33 |
2106-Jun-06 02:38 |
00:04 |
Jupiter |
1.53398021979885 |
1.53397879886011 |
1.53398164077771 |
2.1037813044864 |
1.82251192155812 |
2490416.609532623 |
4.19432653220268 |
472.772867521017 |
35.1717475393713 |
-84.5145582669204 |
1372337.41827042 |
T |
14 |
CATAB v2.0f-lin.ifort 2020-Nov-12 08:33:55 |
2020-Nov-12 08:33 |
2116-Nov-02 01:24 |
00:05 |
Jupiter |
1.90369973031015 |
1.90369677195293 |
1.90370268867223 |
3.11002812089433 |
2.96351228151787 |
2494218.558017508 |
4.76291235823461 |
226.961408830456 |
39.1006008947411 |
-63.0540137490534 |
1625090.3687409 |
T |
14 |
CATAB v2.0f-lin.ifort 2020-Nov-12 08:33:55 |
2020-Nov-12 08:33 |
2190-Dec-11 21:40 |
00:08 |
Jupiter |
1.60367408839063 |
1.6036706750412 |
1.60367750179155 |
2.1244730053885 |
1.8593098487084 |
2521286.402511018 |
7.92398971196551 |
523.814186926112 |
25.396112333254 |
-76.7004474003932 |
1438334.50179778 |
T |
14 |
CATAB v2.0f-lin.ifort 2020-Nov-12 08:33:55 |
2020-Nov-12 08:33 |
|
|